[[{"header":{"parameterUnit":"m.s-1","parameterCategory":1,"la1":30.2991,"la2":30.254,"lo1":-89.0895,"lo2":-89.0444,"dy":0.0017,"dx":0.0017,"nx":28,"ny":28,"refTime":"2025-12-25T03:00:00:Z","depth":0,"parameterNumber":2,"parameterNumberName":"U-component_of_WINDS"},"data":[0,0,0,0,0,0,0,0,0,0,0,0,0,0,0,0,0,0,0,0,0,0,0,0,0,0,0,0,0,0,0,0,0,0,0,0,0,0,0,0,0,0,0,0,0,0,0,0,0,0,0,0,0,0,0,0,0,0,1.7679,1.7681,0,1.7829,1.7831,1.7833,1.7882,1.7882,1.7881,1.788,1.8034,1.8039,1.8043,0,0,0,0,0,0,0,0,0,0,0,0,0,1.7437,1.7441,1.7679,1.7681,1.7683,1.7829,1.7831,1.7833,1.7882,1.7882,1.7881,1.788,1.8032,1.8038,1.8044,0,0,0,0,0,0,0,0,0,0,0,0,0,1.756,1.7442,1.7679,1.7725,1.7731,1.7829,1.7831,1.7834,1.7883,1.7882,1.7881,1.788,1.8031,1.8037,1.8044,1.8107,0,0,1.8066,1.8069,0,0,0,0,0,0,0,0,1.7553,1.7569,1.7717,1.7722,1.7729,1.7836,1.7802,1.7925,1.7883,1.7825,1.788,1.7879,1.7969,1.7981,1.8011,1.8114,1.8121,1.8066,1.8071,1.8074,1.8076,0,0,0,0,0,0,0,1.7544,1.7562,1.7739,1.7719,1.7726,1.7739,1.7755,1.7826,1.7901,1.783,1.7834,1.7851,1.7972,1.8004,1.8015,1.8123,1.8066,1.8073,1.8077,1.808,1.8286,1.8288,0,0,0,0,0,0,1.7528,1.7555,1.7734,1.7743,1.7637,1.7744,1.7762,1.7803,1.79,1.7914,1.7852,1.7853,1.7993,1.8007,1.8021,1.8101,1.8074,1.808,1.8084,1.8285,1.8287,1.8288,0,0,0,0,0,0,1.7522,1.7543,1.7728,1.765,1.7675,1.7749,1.7794,1.7806,1.7838,1.7916,1.793,1.7871,1.7993,1.8011,1.8086,1.8107,1.8083,1.809,1.8284,1.8286,1.8287,1.8261,0,0,0,0,0,0,1.7515,1.7541,1.7565,1.765,1.7679,1.779,1.7795,1.781,1.785,1.7853,1.7938,1.7951,1.7993,1.8075,1.8092,1.8116,1.8095,1.8282,1.8285,1.8287,1.8261,1.8262,1.8263,0,0,0,0,0,1.7506,1.7552,1.7566,1.7587,1.7711,1.7791,1.7807,1.7855,1.7852,1.7877,1.7927,1.7948,1.8102,1.8082,1.8102,1.8128,1.8281,1.8284,1.8287,1.826,1.8262,1.8263,0,0,0,0,0,0,1.7466,1.7564,1.7581,1.7655,1.7714,1.7799,1.7832,1.7855,1.7916,1.7916,1.7973,1.7992,1.8062,1.8103,1.8079,1.8195,1.8193,1.82,1.8165,1.8168,1.8169,1.8157,1.8101,0,0,0,0,0,1.7466,1.7523,1.7605,1.7663,1.7692,1.7757,1.7793,1.7825,1.7889,1.7914,1.797,1.8031,1.8093,1.8133,1.8195,1.8267,1.8287,1.8296,1.8297,1.8298,1.8303,1.8345,1.835,1.8297,1.8297,1.8297,0,0,1.7467,1.7527,1.7559,1.7656,1.7706,1.7764,1.7777,1.7838,1.7882,1.7924,1.7997,1.804,1.8113,1.8187,1.8222,1.8223,1.8322,1.8301,1.8301,1.8306,1.8348,1.8353,1.8358,1.8299,1.8299,1.8299,0,0,1.7496,1.7548,1.7602,1.7651,1.7727,1.777,1.7783,1.7865,1.7895,1.797,1.8003,1.8056,1.8162,1.8212,1.8251,1.8302,1.8324,1.8321,1.8328,1.8368,1.8372,1.8376,1.8394,1.84,1.8326,1.8326,1.8326,0,1.7487,1.7575,1.7626,1.7686,1.7728,1.7769,1.7824,1.787,1.7961,1.799,1.799,1.8124,1.8176,1.8262,1.8275,1.8305,1.8322,1.8311,1.8368,1.8372,1.8376,1.8394,1.8401,1.8325,1.8325,1.8325,1.8325,0,1.756,1.7621,1.7656,1.7743,1.779,1.7846,1.7906,1.7947,1.7975,1.8019,1.8095,1.8159,1.8234,1.8257,1.8285,1.8348,1.8347,1.8356,1.8355,1.838,1.8397,1.8405,1.8324,1.8324,1.8324,1.8325,0,0,1.7567,1.7684,1.7695,1.7736,1.7823,1.7871,1.793,1.8005,1.8038,1.8101,1.8152,1.8241,1.8251,1.8296,1.833,1.8366,1.8402,1.8372,1.8374,1.8375,1.8476,1.8467,1.8474,1.8418,1.8419,1.842,1.847,0,1.7608,1.7715,1.7764,1.7849,1.7906,1.7948,1.7999,1.8058,1.8101,1.8156,1.8203,1.8266,1.8274,1.8302,1.8339,1.839,1.8423,1.8387,1.8466,1.8468,1.8445,1.8484,1.8475,1.8518,1.8477,1.8478,1.8479,0,1.7669,1.7732,1.7823,1.7904,1.793,1.7976,1.8048,1.81,1.8169,1.8197,1.8248,1.8281,1.8345,1.8341,1.843,1.8405,1.844,1.847,1.8473,1.8482,1.8474,1.8492,1.8533,1.8539,1.8491,1.849,1.8489,0,1.7665,1.7772,1.7841,1.7875,1.7971,1.8002,1.8044,1.8111,1.8153,1.8217,1.8244,1.8315,1.8353,1.8406,1.8458,1.845,1.8543,1.8542,1.8569,1.8567,1.8585,1.8583,1.8631,1.8609,1.8609,1.8609,1.8609,0,1.7705,1.7759,1.784,1.7882,1.7945,1.8,1.8061,1.8105,1.8166,1.8217,1.8258,1.8306,1.8371,1.8428,1.8469,1.8537,1.8554,1.8579,1.8589,1.8575,1.8572,1.8598,1.8596,1.8611,1.861,1.861,1.861,0,1.7709,1.7766,1.7844,1.7929,1.7952,1.7994,1.8068,1.811,1.8156,1.8221,1.8239,1.831,1.8379,1.8436,1.8526,1.8554,1.8625,1.8637,1.8601,1.8607,1.863,1.8626,1.8696,1.8708,1.8678,1.8678,1.8678,0,1.773,1.7773,1.7864,1.7901,1.7943,1.8003,1.8046,1.8103,1.8146,1.8228,1.8261,1.8333,1.8393,1.8501,1.8561,1.863,1.8644,1.8664,1.8655,1.8639,1.8644,1.8641,1.8645,1.8664,1.8664,1.8664,1.8664,0,1.7762,1.7788,1.7849,1.792,1.797,1.8028,1.8088,1.8117,1.8185,1.8232,1.8303,1.8349,1.8442,1.8513,1.8589,1.8632,1.866,1.8667,1.8676,1.8662,1.8639,1.8652,1.8603,1.8664,1.8664,1.8664,1.8664,1.8664,1.7775,1.7816,1.7886,1.7952,1.8003,1.8058,1.8103,1.8154,1.8214,1.8294,1.8324,1.8397,1.8466,1.8571,1.8615,1.8673,1.8676,1.869,1.8693,1.8696,1.8694,1.8631,1.8687,1.8687,1.8687,1.8687,1.8687,0,1.7808,1.7856,1.7917,1.7999,1.8051,1.8073,1.8141,1.8183,1.8247,1.8308,1.8367,1.8449,1.8519,1.8584,1.8657,1.8691,1.8705,1.8708,1.8705,1.8715,1.8687,1.8671,1.8695,1.8695,1.8695,1.8695,1.8695,1.8695,1.7832,1.7901,1.7936,1.8031,1.8079,1.815,1.8187,1.8238,1.8288,1.8377,1.8435,1.8478,1.8542,1.862,1.8684,1.8702,1.8727,1.8726,1.8747,1.8719,1.8717,1.8716,1.8701,1.8731,1.8731,1.8771,1.8771,1.8771]},{"header":{"parameterUnit":"m.s-1","parameterCategory":1,"la1":30.2991,"la2":30.254,"lo1":-89.0895,"lo2":-89.0444,"dy":0.0017,"dx":0.0017,"nx":28,"ny":28,"refTime":"2025-12-25T03:00:00:Z","depth":0,"parameterNumber":3,"parameterNumberName":"V-component_of_WINDS"},"data":[0,0,0,0,0,0,0,0,0,0,0,0,0,0,0,0,0,0,0,0,0,0,0,0,0,0,0,0,0,0,0,0,0,0,0,0,0,0,0,0,0,0,0,0,0,0,0,0,0,0,0,0,0,0,0,0,0,0,1.2928,1.2928,0,1.292,1.292,1.2919,1.2892,1.2891,1.2891,1.289,1.2881,1.2881,1.2882,0,0,0,0,0,0,0,0,0,0,0,0,0,1.2921,1.2921,1.2928,1.2928,1.2928,1.292,1.292,1.2919,1.2892,1.2891,1.2891,1.289,1.2881,1.2881,1.2882,0,0,0,0,0,0,0,0,0,0,0,0,0,1.2919,1.2921,1.2928,1.2913,1.2912,1.292,1.292,1.2919,1.2892,1.2891,1.289,1.289,1.2881,1.2881,1.2882,1.2903,0,0,1.2883,1.2883,0,0,0,0,0,0,0,0,1.2919,1.2919,1.2916,1.2914,1.2913,1.2906,1.2913,1.2914,1.2893,1.29,1.289,1.2889,1.289,1.289,1.289,1.2903,1.2902,1.2883,1.2884,1.2884,1.2884,0,0,0,0,0,0,0,1.2919,1.292,1.2925,1.2916,1.2914,1.2907,1.2906,1.2913,1.29,1.2899,1.2897,1.2896,1.2889,1.289,1.289,1.2902,1.2883,1.2884,1.2884,1.2884,1.2933,1.2934,0,0,0,0,0,0,1.2922,1.292,1.2925,1.2924,1.2914,1.2908,1.2907,1.2909,1.29,1.2898,1.2897,1.2895,1.2889,1.2889,1.2889,1.2914,1.2884,1.2884,1.2885,1.2932,1.2933,1.2934,0,0,0,0,0,0,1.2922,1.2922,1.2925,1.2922,1.2922,1.2909,1.2912,1.2909,1.291,1.2899,1.2896,1.29,1.2889,1.2889,1.29,1.2914,1.2884,1.2885,1.2931,1.2932,1.2933,1.2965,0,0,0,0,0,0,1.2922,1.2923,1.293,1.2922,1.2922,1.2936,1.2913,1.291,1.2911,1.2908,1.2901,1.2899,1.2888,1.29,1.2901,1.2914,1.2885,1.2929,1.2931,1.2933,1.2962,1.2967,1.2971,0,0,0,0,0,1.2921,1.2939,1.2931,1.2932,1.2932,1.2937,1.2937,1.2924,1.2912,1.292,1.2913,1.2899,1.2912,1.2901,1.2902,1.2916,1.2928,1.2931,1.2933,1.296,1.2966,1.2971,0,0,0,0,0,0,1.2949,1.2938,1.2929,1.2944,1.2942,1.2933,1.2942,1.2931,1.2932,1.2929,1.2913,1.2912,1.2926,1.2921,1.291,1.2936,1.2918,1.292,1.2938,1.2944,1.2948,1.2949,1.2886,0,0,0,0,0,1.2957,1.2963,1.2952,1.2967,1.2967,1.2955,1.2957,1.2947,1.2944,1.2943,1.2937,1.2934,1.2938,1.294,1.2943,1.2961,1.296,1.2971,1.2976,1.2979,1.2982,1.2992,1.2997,1.2941,1.2941,1.2941,0,0,1.2973,1.2968,1.2972,1.2973,1.297,1.2976,1.2954,1.2962,1.2966,1.2944,1.2955,1.295,1.2946,1.2962,1.2968,1.2959,1.2997,1.2982,1.2985,1.2986,1.2995,1.3,1.3005,1.2943,1.2943,1.2942,0,0,1.3007,1.3003,1.3016,1.3013,1.301,1.3002,1.3005,1.2997,1.2993,1.3004,1.2988,1.2993,1.2999,1.2998,1.2998,1.3031,1.3019,1.3032,1.3055,1.3066,1.307,1.3074,1.3087,1.3092,1.3035,1.3035,1.3035,0,1.3028,1.3037,1.3023,1.3032,1.3033,1.3014,1.3027,1.3025,1.3022,1.3023,1.3013,1.3021,1.3017,1.3032,1.304,1.3041,1.3044,1.3034,1.3071,1.3074,1.3078,1.309,1.3095,1.3037,1.3037,1.3036,1.3036,0,1.3063,1.307,1.3081,1.3079,1.3081,1.3092,1.308,1.3084,1.3074,1.3067,1.3079,1.3073,1.3075,1.3078,1.3068,1.3092,1.3086,1.3073,1.3055,1.3085,1.3096,1.3101,1.3039,1.3039,1.3038,1.3038,0,0,1.3114,1.3105,1.311,1.3109,1.3104,1.3109,1.3119,1.3121,1.3125,1.3123,1.3132,1.3138,1.3126,1.3126,1.3116,1.3125,1.3154,1.3111,1.3111,1.312,1.3181,1.3191,1.3197,1.3145,1.3146,1.3147,1.3182,0,1.3147,1.3164,1.3152,1.3171,1.3178,1.316,1.3169,1.3167,1.3161,1.3165,1.3158,1.3164,1.3147,1.3147,1.3155,1.3149,1.3166,1.3146,1.3154,1.3154,1.3156,1.3203,1.3213,1.3247,1.3186,1.3186,1.3187,0,1.3187,1.3188,1.3208,1.3203,1.3205,1.3213,1.3215,1.3219,1.3217,1.3212,1.3212,1.32,1.321,1.3191,1.3205,1.3192,1.3194,1.3191,1.3192,1.3193,1.3173,1.3206,1.3257,1.3262,1.3194,1.3193,1.3193,0,1.3223,1.323,1.3243,1.3243,1.3236,1.3243,1.324,1.3237,1.3239,1.324,1.3242,1.3244,1.3245,1.3247,1.3236,1.3223,1.3252,1.3232,1.3248,1.3249,1.3256,1.3256,1.3309,1.3256,1.3256,1.3256,1.3255,0,1.3261,1.3274,1.3259,1.3268,1.3282,1.3269,1.3283,1.3279,1.3276,1.3283,1.3267,1.3274,1.3259,1.3265,1.3256,1.3269,1.327,1.3266,1.3264,1.3268,1.3269,1.327,1.3268,1.3257,1.3257,1.3256,1.3256,0,1.3304,1.3294,1.3308,1.3301,1.33,1.3311,1.3305,1.3312,1.3305,1.3315,1.3316,1.3306,1.3311,1.3301,1.3305,1.3299,1.3318,1.3311,1.3319,1.3318,1.3335,1.3334,1.3392,1.3399,1.3341,1.3341,1.3342,0,1.3329,1.3339,1.3334,1.3338,1.3337,1.3343,1.3345,1.3332,1.3336,1.3334,1.3342,1.3347,1.335,1.336,1.3353,1.3356,1.335,1.337,1.335,1.3355,1.3352,1.3352,1.3353,1.3374,1.3375,1.3376,1.3376,0,1.3376,1.3371,1.3375,1.3378,1.3382,1.3384,1.3384,1.3388,1.3375,1.3379,1.3385,1.3388,1.3393,1.3398,1.34,1.3397,1.3385,1.3382,1.3386,1.3391,1.3396,1.3395,1.3331,1.3381,1.3381,1.338,1.338,1.338,1.3411,1.342,1.3418,1.3423,1.3423,1.3424,1.3431,1.3425,1.343,1.3434,1.3425,1.3434,1.3432,1.3433,1.3432,1.3438,1.3429,1.3435,1.3437,1.3438,1.3442,1.3394,1.3438,1.3438,1.3438,1.3438,1.3438,0,1.3458,1.3456,1.3461,1.3463,1.3468,1.3456,1.3456,1.3461,1.3468,1.3468,1.3471,1.3479,1.3484,1.3477,1.3481,1.3488,1.3482,1.3489,1.3489,1.3489,1.3449,1.3446,1.3494,1.3494,1.3494,1.3494,1.3494,1.3494,1.3482,1.3496,1.3491,1.3505,1.3503,1.3511,1.3513,1.3514,1.3513,1.3523,1.3527,1.3523,1.352,1.3524,1.3528,1.3526,1.3528,1.3538,1.3534,1.3497,1.3491,1.3486,1.3483,1.3538,1.3538,1.3573,1.3573,1.3574]}]]